Location: Michelbach Markt
(48.1000°N, 15.7500°E)
Time: 21:56:12
(UTC+02:00)

X-37B - Pass Details

Date: 28 January 2022
Orbit: 328 x 343 km, 45.0° (Epoch: 15 May)

Event Time Altitude Azimuth Distance (km) Brightness Sun altitude
Rises 18:56:11 0° 236° (SW) 2,107 5.3 -21.0°
Reaches altitude 10° 18:58:20 10° 224° (SW) 1,268 3.8 -21.3°
Enters shadow 18:59:34 19° 205° (SSW) 869 2.6 -21.5°
